Simultaneous Nadir Overpasses (SNOs) Predictions

Prediction of SNOs between LANDSAT-8 and METOP-B Satellite Orbit:

Table of predicted SNOs for the next 14.0 days since TLE Epoch: 6/25/2016
Index Date (LANDSAT-8) Time (LANDSAT-8) Lat,Lon (LANDSAT-8) SZA (LANDSAT-8 ) Date (METOP-B) Time (METOP-B) Lat,Lon (METOP-B) SZA (METOP-B ) Distance(km) Time Diff (sec)
1 06/27/2016 01:14:15 -81.08, 20.83 120.18 06/27/2016 01:13:52 -81.09, 21.00 120.17 2.94 23
2 06/27/2016 02:03:40 81.11,-171.07 59.89 06/27/2016 02:04:31 81.11,-170.89 59.94 3.10 51
3 06/29/2016 20:48:32 -81.08, 87.22 120.06 06/29/2016 20:48:18 -81.08, 87.22 120.06 0.36 14
4 06/29/2016 21:37:57 81.11,-104.71 60.01 06/29/2016 21:38:57 81.11,-104.69 60.04 0.36 60
5 07/02/2016 16:22:47 -81.10, 153.93 119.83 07/02/2016 16:22:42 -81.09, 153.81 119.85 2.15 5
6
